Search flights

San Francisco Intl Airport, San Francisco (KSFO)

Airport Weather & NOTAM's

METAR for:KSFO (San Francisco Intl, CA, US)
Text:KSFO 132356Z 31013KT 10SM FEW004 BKN200 22/13 A2991 RMK AO2 SLP127 T02170133 10222 20172
Conditions at:2356 UTC 13 Jul 2024
Temperature: 21.7°C ( 71°F)
Dewpoint: 13.3°C ( 56°F) [RH = 59%]
Pressure (altimeter):29.91 inches Hg (1013.0 mb) [Sea level pressure: 1012.7 mb]
Winds:from the NW (310 degrees) at 15 MPH (13 knots; 6.7 m/s)
Visibility:10 or more sm (16+ km)
Ceiling:20000 feet AGL
Clouds:few clouds at 400 feet AGL, broken clouds at 20000 feet AGL
TAF for:KSFO (San Francisco Intl, CA, US) issued at 2320 UTC 13 Jul 2024
Text:KSFO 132320Z 1400/1506 31016KT P6SM SKC
Forecast period:0000 to 0600 UTC 14 July 2024
Forecast type:FROM: standard forecast or significant change
Winds:from the NW (310 degrees) at 18 MPH (16 knots; 8.2 m/s)
Visibility:6 or more sm (10+ km)
Ceiling:at least 12,000 feet AGL
Clouds:clear skies
Text:FM140600 30008KT P6SM SCT008
Forecast period:0600 to 0800 UTC 14 July 2024
Forecast type:FROM: standard forecast or significant change
Winds:from the WNW (300 degrees) at 9 MPH (8 knots; 4.1 m/s)
Visibility:6 or more sm (10+ km)
Ceiling:at least 12,000 feet AGL
Clouds:scattered clouds at 800 feet AGL
Text:FM140800 28007KT 6SM BR BKN008
Forecast period:0800 to 1600 UTC 14 July 2024
Forecast type:FROM: standard forecast or significant change
Winds:from the W (280 degrees) at 8 MPH (7 knots; 3.6 m/s)
Visibility:6 sm (10 km)
Ceiling:800 feet AGL
Clouds:broken clouds at 800 feet AGL
Weather:BR (mist)
Text:FM141600 31007KT P6SM FEW200
Forecast period:1600 to 1900 UTC 14 July 2024
Forecast type:FROM: standard forecast or significant change
Winds:from the NW (310 degrees) at 8 MPH (7 knots; 3.6 m/s)
Visibility:6 or more sm (10+ km)
Ceiling:at least 12,000 feet AGL
Clouds:few clouds at 20000 feet AGL
Text:FM141900 31017KT P6SM FEW200
Forecast period:1900 UTC 14 July 2024 to 0600 UTC 15 July 2024
Forecast type:FROM: standard forecast or significant change
Winds:from the NW (310 degrees) at 20 MPH (17 knots; 8.7 m/s)
Visibility:6 or more sm (10+ km)
Ceiling:at least 12,000 feet AGL
Clouds:few clouds at 20000 feet AGL

Live Departures & Arrivals

There are currently no arrivals or departures for this airport.

Departures History (last 12 months)

Flight No. Dest. Aircraft Date
UAV1962 KLAX A330 HEADW... 2024-06-20 22:35:00
UAV784 CYVR A320-214 2024-06-12 21:35:00
UAV2041 KSAN 737-800 2024-06-11 01:55:00
UAV1971 KSEA A319 2024-03-28 09:00:00
UAV2420 KSAN A320 2024-03-18 14:48:00
UAV2368 KDEN B739ER 2024-03-16 10:30:00
UAV1240 KDFW B738 2024-02-04 13:15:00
UAV1201 KPHX 737-900ER 2024-01-29 21:30:00
UAV1201 KPHX B738 2024-01-28 17:02:00
UAV5424 KSNA 737-800 2024-01-23 20:12:00
UAV2380 PHNL B739ER 2024-01-22 12:10:00
UAV1189 MMSD B738 2024-01-19 18:58:00
UAV2368 KDEN B738 2024-01-16 04:45:00
UAV2041 KSAN B737 2024-01-17 20:48:00
UAV2070 KAUS 737-900 2024-01-15 09:52:00
UAV2259 KIND A320-200 2024-01-15 18:11:00
UAV1240 KDFW B739 2024-01-13 19:04:00
UAV1240 KDFW B738 2024-01-13 09:06:00
UAV2248 KSNA B738 2024-01-07 11:09:00
UAV1942 KPDX B739 2024-01-09 15:02:00
UAV5904 KFAT 737-800 2024-01-05 20:35:00
UAV5904 KFAT 737-700 2024-01-05 12:00:00
UAV5872 KSLC 737-700 2024-01-04 12:00:00
UAV5872 KSLC B739 2024-01-03 18:48:00
UAV5872 KSLC E175 2024-01-03 16:46:00
UAV4671 KBFL A319CEO 2024-01-04 12:00:00
UAV5711 KRDM A319CEO 2024-01-03 20:00:00
UAV5711 KRDM A319CEO 2024-01-03 12:00:00
UAV5711 KRDM B739 2024-01-02 17:48:00
UAV4671 KBFL B739 2024-01-02 21:57:00
UAV4671 KBFL E175 2024-01-02 18:43:00
UAV5872 KSLC B738 2024-01-02 16:39:00
UAV5711 KRDM E175 2024-01-01 15:01:00
UAV4671 KBFL B737 2024-01-01 11:34:00
UAV1069 KLAX B738 2024-01-02 11:53:00
UAV5711 KRDM B737 2024-01-01 14:09:00
UAV1942 KPDX 739 2024-01-01 11:03:00
UAV1721 PHKO 777-222 2024-01-01 16:00:00
UAV2368 KDEN A320 2023-12-31 21:23:00
UAV1074 KEWR B789 2023-12-27 01:49:00
UAVTRAINING1 KPDX B738 2023-12-29 10:32:00
UAV2678 KLAS 787 2023-12-22 12:30:00
UAV2678 KLAS 777-300ER 2023-12-21 12:00:00
UAVVEGAS KLAS B739 2023-12-21 01:34:00
UAVGROUPFLIG KLAS B739 2023-12-21 02:13:00
UAV2986 KLAS 737-800 2023-12-21 10:00:00
SIN CITY GROUP FLIGH KLAS 738 2023-12-21 20:00:00
GROUPFLIGHT KLAS 737-700 2023-12-21 12:00:00
GROUP FLIGHT KLAS 737-800 2023-12-21 20:35:00
UAV5423 KSMF E170 2023-12-19 20:05:00
UAV2669 KMCO B78X 2023-12-17 01:53:00
UAV2368 KDEN B739 2023-12-12 10:26:00
UAV5541 KSLC 737-800 2023-12-09 12:00:00
UAV5541 KSLC 737-800 2023-12-09 12:00:00
UAV2678 KLAS 737-900 2023-12-10 21:26:00
UAV2405 KBOI A319 2023-12-09 22:19:00
UAV1962 KLAX 737-800 2023-12-09 04:31:00
UAV1971 KSEA A319 2023-12-09 03:01:00
UAV2368 KDEN A320 2023-12-04 05:47:00
UAV2055 KPHL 737-800 2023-12-05 18:20:00
UAV5805 KBUR E175 2023-12-03 02:25:00
UAV1435 KIAH B738 2023-12-03 20:39:00
UAV784 CYVR B739M 2023-11-30 16:00:00
UAV1971 KSEA A320 2023-11-29 11:43:00
UAV2176 KRNO A320 2023-11-26 04:34:00
UAV2368 KDEN 787-10 2023-11-23 06:14:00
UAV115 NTAA 787-9 2023-11-22 07:00:00
UAV1748 KSAN B739 2023-11-18 10:55:00
UAV1942 KPDX A320 2023-11-14 10:05:00
UAV2176 KRNO A320 2023-11-14 11:42:00
UAV2176 KRNO A319 2023-11-13 12:29:00
UAV1971 KSEA A320 2023-11-06 09:34:00
UAV1756 KORD A318 2023-11-07 10:37:00
UAV5423 KSMF E175 2023-11-05 22:37:00
UAV2047 KSNA A320 2023-11-06 19:08:00
UAV2041 KSAN A319 2023-11-03 10:05:00
UAV2419 KSAN A320 2023-11-02 17:01:00
UAV1971 KSEA A319 2023-11-02 02:29:00
UAV1942 KPDX A320 2023-11-01 10:10:00
UAV2405 KBOI A320 2023-11-01 13:00:00
UAV5423 KSMF E175 2023-10-30 11:47:00
UAV1721 PHKO 777-300ER 2023-11-01 19:00:00
UAV1721 PHKO 777-300ER 2023-10-31 16:20:00
UAV1189 MMSD A320 2023-10-30 16:15:00
UAV784 CYVR 777-200ER 2023-10-29 16:40:00
UAV784 CYVR A319 2023-10-29 16:19:00
UAV611 KSBA 737-800 2023-10-29 13:00:00
UAV2419 KSAN A319 2023-10-30 20:24:00
UAV1962 KLAX E175 2023-10-30 19:50:00
UAV611 KSBA 737-800 2023-10-28 12:34:00
UAV2041 KSAN 737-800 2023-10-27 13:00:00
UAV1435 KIAH B737 2023-10-27 02:10:00
UVA1175 PHNL 787-10 2023-10-24 09:35:00
UAV1971 KSEA A320 2023-10-24 01:19:00
UAV2041 KSAN 737-800 2023-10-23 18:00:00
UAV708 KIAD 767-400ER 2023-10-22 12:59:00
UAV5543 CYVR B738 2023-10-22 20:56:00
UAVUAV KSEA B738 2023-10-21 01:39:00
UAV1320 KSEA 737-800 2023-10-21 01:00:00
ACA 0913 CYYZ A330 2023-10-21 03:45:00
UAVUAV KSEA A319 2023-10-21 01:50:00
UAV863 YSSY 777-300ER 2023-10-21 06:50:00
UAV447 KSEA B737 2023-10-21 20:40:00
UAV2405 KBOI 737-800 2023-10-20 20:32:00
UAV2321 KSEA B738 2023-10-21 20:40:00
UAV1971 KSEA A319 2023-10-21 17:45:00
UAV1971 KSEA B737 2023-10-21 00:00:00
UAV1958 KSEA B737-800 2023-10-21 01:30:00
447 KSEA 737-800 2023-10-21 22:00:00
UAV5541 KSLC A319 2023-10-20 15:53:00
UAV863 YSSY 777-300 2023-10-19 07:00:00
UAV2061 KMCI A319 2023-10-19 15:52:00
UAV708 KIAD 747-8 2023-10-17 09:50:00
UAV1756 KORD A320 2023-10-17 16:08:00
UAV784 CYVR A320 2023-10-17 16:19:00
UAV1121 PHOG B772 2023-10-17 16:40:00
UAV2419 KSAN A320 2023-10-15 09:51:00
UAV0057 PHKO B737 2023-10-10 18:05:00
UAV 1240 KDFW A320 2023-10-10 09:57:00
UAL1007 KIAH B737-932ER 2023-10-10 19:30:00
UAV1971 KSEA A319 2023-10-08 09:58:00
UAV338 KRNO A319 2023-10-06 10:48:00
UAV 693 KMSP A319 2023-09-29 13:15:00
UAV 477 KPDX A319 2023-09-28 20:53:00
UAV 5872 KSLC E175 2023-09-24 11:20:00

Arrivals History (last 12 months)

Flight No. Origin Aircraft Date
UAV1152 KPHX A330 HEADW... 2024-07-01 02:38:00
UAV949 EGLL A330 HEADW... 2024-06-20 05:04:00
UAV820 MMMX A320-214 2024-06-11 12:28:00
UAV2445 KLAX A319 2024-04-30 16:15:00
UAV490 KEUG A319 2024-03-28 00:17:00
UAV2005 KDFW B737 2024-02-15 14:13:00
UAV1763 KMCI B738 2024-02-03 12:13:00
UAV2363 KSEA 737-900 2024-01-30 21:38:00
UAV478 KSBA 737-800 2024-01-28 21:49:00
UAV2363 KSEA B738 2024-01-29 15:52:00
UAV478 KSBA B738 2024-01-27 16:07:00
UAV753 KLAS B739 2024-01-21 10:51:00
UAV2363 KSEA B738 2024-01-21 03:33:00
UAV1746 KMIA 737-800 2024-01-21 19:51:00
UAV2445 KLAX A320-214 2024-01-18 21:34:00
UAV2063 KDEN B739 2024-01-19 05:03:00
UAV4678 KBOI B738 2024-01-15 21:54:00
UAV1401 KAUS B739 2024-01-16 20:29:00
UAV4678 KBOI B738 2024-01-15 19:04:00
UAV2627 KSAN 737-900ER 2024-01-14 23:09:00
UAV2063 KDEN B739 2024-01-12 04:55:00
UAV2445 KLAX E175 2024-01-10 17:25:00
UAV5745 KASE 737-900ER 2024-01-08 14:28:00
UAV2664 KSNA B738 2024-01-07 14:24:00
UAV5745 KASE B737 2024-01-07 15:56:00
UAV4696 KBFL A319CEO 2024-01-04 12:44:00
UAV5464 KRDM A319CEO 2024-01-03 15:21:00
UAV4753 KBOI E-175 2024-01-04 14:00:00
UAV4696 KBFL B739 2024-01-03 06:34:00
UAV5464 KRDM A319CEO 2024-01-03 23:20:00
UAV5464 KRDM B739 2024-01-02 20:59:00
UAV4753 KBOI B739 2024-01-02 08:02:00
UAV4696 KBFL E175 2024-01-03 21:01:00
UAV5464 KRDM E175 2024-01-02 04:04:00
UAV4753 KBOI 737-800 2024-01-02 22:45:00
UAV4753 KBOI E175 2024-01-02 13:12:00
UAV4753 KBOI E175 2024-01-01 14:35:00
UAV4696 KBFL B737 2024-01-01 14:40:00
UAV1041 KIAH B739 2024-01-01 09:56:00
UAV5464 KRDM E175 2024-01-01 22:02:00
UAV4753 KBOI E175 2023-12-31 12:59:00
UAV2248 KRNO 739 2023-12-31 06:20:00
UAV277 KIAD 757-300 2023-12-31 16:13:00
UAV2726 KJAC B738 2023-12-31 18:47:00
UAV2726 KJAC 737-800 2023-12-31 23:08:00
UAVTRAINING2 KPDX B738 2023-12-29 10:14:00
UAV2627 KSAN B738 2023-12-27 23:56:00
ACA570 CYVR 737-700 2023-12-19 15:53:00
UAV467 KMSP B78X 2023-12-16 21:44:00
UAV753 KLAS 737-900 2023-12-11 13:24:00
UAV2363 KSEA A319 2023-12-09 15:36:00
UAV1152 KPHX 737-800 2023-12-09 14:15:00
UAV2363 KSEA 737-800 2023-12-08 23:06:00
UAV1152 KPHX 737-800 2023-12-09 13:48:00
UAV5326 KBUR E175 2023-12-04 04:27:00
UAV467 KMSP B739 2023-12-04 14:32:00
UAV2445 KLAX 737-800 2023-12-02 16:14:00
UAV2158 KIAH B738 2023-12-02 21:33:00
UAV2445 KLAX 737-800 2023-11-29 18:37:00
UAV433 KBOS 767 2023-11-26 15:24:00
UAV820 MMMX A320 2023-11-26 13:05:00
UAV114 NTAA 787-9 2023-11-22 13:43:00
UAV277 KIAD A320 2023-11-19 17:09:00
UAV231 KBNA A320 2023-11-18 23:07:00
UAV646 KRNO A320 2023-11-14 14:22:00
UAV1403 KEUG A320 2023-11-13 10:51:00
UAV666 KEUG A319 2023-11-13 22:44:00
UAV4678 KBOI A319 2023-11-06 18:27:00
UAV5685 KSMF E75L 2023-11-05 19:18:00
UAV2480 KSNA A320 2023-11-06 21:40:00
UAV2032 KEWR 777-222 2023-11-04 22:51:00
UAV2627 KSAN A319 2023-11-04 04:35:00
UAV2627 KSAN A320 2023-11-02 20:12:00
UAV2063 KDEN A320 2023-11-02 07:30:00
UAV753 KLAS 737-900 2023-11-01 05:02:00
UAV4678 KBOI A320 2023-11-01 01:45:00
UAV2691 KPDX A320 2023-11-01 13:59:00
UAV5685 KSMF E175 2023-10-31 13:51:00
UAV2627 KSAN A320 2023-10-30 11:18:00
UAV1855 CYVR A319 2023-10-30 22:37:00
UAV1855 CYVR A319 2023-10-30 22:38:00
UAV2691 KPDX A319 2023-10-30 14:27:00
UAV2158 KIAH 777-200ER 2023-10-29 18:08:00
UAV2158 KIAH A320CEO 2023-10-29 15:37:00
UAV2158 KIAH A320 2023-10-29 15:33:00
UAV838 RJAA 747-8I 2023-10-29 13:00:00
UAV467 KMSP A320 2023-10-28 21:43:00
UAV2445 KLAX 737-800 2023-10-27 23:00:00
UAV2063 KDEN B738 2023-10-27 18:35:00
UAV2627 KSAN 737-800 2023-10-23 06:00:00
UAV2363 KSEA DC6 2023-10-23 22:32:00
UAV870 YSSY 777-300ER 2023-10-22 19:55:00
UAV2288 KMCO B738 2023-10-22 18:24:00
UAV2063 KDEN B739 2023-10-29 23:00:00
UAV753 KLAS A320 2023-10-20 19:08:00
UAV1152 KPHX A319 2023-10-21 19:13:00
UAV900 EGLL 787-10 2023-10-20 17:28:00
UAV2063 KDEN B739 2023-10-20 20:42:00
UAV1763 KMCI A319 2023-10-19 14:37:00
UAV1152 KPHX 737-800 2023-10-20 22:10:00
UAV2445 KLAX 737-800 2023-10-18 16:03:00
UAV1855 CYVR 737-800 2023-10-18 06:06:00
UAV277 KIAD 777-300ER 2023-10-18 21:35:00
UAV2063 KDEN B739 2023-10-17 16:31:00
UAV1855 CYVR A319 2023-10-18 17:08:00
UAV2627 KSAN A319 2023-10-16 13:45:00
UAV693 KPDX A319 2023-10-14 11:37:00
UAV0056 KDEN B737 2023-10-10 04:38:00
UAV360 KDEN B737-800 2023-10-10 23:59:00
UAL2238 KIAH B737-832 2023-10-10 23:26:00
UAV1240 KSEA A319 2023-10-08 14:48:00
UAV278 KRNO A319 2023-10-06 13:27:00
UAV2180 KRDM A319 2023-10-06 21:23:00
UAV693 KPDX A319 2023-09-28 12:01:00
UAV5899 KRNO E175 2023-09-26 20:45:00
UAV 2166 KPHX A320 2023-09-24 11:01:00

Runway Information (Airport elevation: 13ft)

Runway 01L Length 7,640ft Width 164ft Elevation 10ft Surface Asphalt Heading 28
Runway 01R Length 8,639ft Width 196ft Elevation 10ft Surface Asphalt Heading 28
Runway 10L Length 11,855ft Width 200ft Elevation 10ft Surface Asphalt Heading 118
Runway 10R Length 11,382ft Width 200ft Elevation 10ft Surface Asphalt Heading 118
Runway 19L Length 8,639ft Width 196ft Elevation 10ft Surface Asphalt Heading 208
Runway 19R Length 7,640ft Width 164ft Elevation 10ft Surface Asphalt Heading 208
Runway 28L Length 11,382ft Width 200ft Elevation 10ft Surface Asphalt Heading 298
Runway 28R Length 11,855ft Width 200ft Elevation 10ft Surface Asphalt Heading 298

Airport Frequencies

Type APP/DEP Frequency 128.325 Mhz
Type APP/DEP Frequency 133.950 Mhz
Type APP/DEP Frequency 134.500 Mhz
Type ATIS Frequency 118.850 Mhz
Type CPT Frequency 118.200 Mhz
Type D Frequency 120.900 Mhz
Type D Frequency 135.100 Mhz
Type Ground Frequency 121.800 Mhz
Type Tower Frequency 120.500 Mhz
Type UC Frequency 122.950 Mhz
Type Clearance Frequency 118.200 Mhz
Type D Frequency 125.350 Mhz
Type D Frequency 127.000 Mhz
Type D Frequency 133.950 Mhz
Type D Frequency 134.500 Mhz
Type Ground Frequency 119.225 Mhz
Type Ground Frequency 127.575 Mhz
Type Ground Frequency 131.000 Mhz

Airport Navaids

Type NDB Ident SF Frequency 379 Khz
Type VOR-DME Ident SFO Frequency 115800 Khz